Location: Sweet Grass
(48.9965°N, 111.9649°W)
Time: 16:16:09
(UTC+00:00)

DX 1 - Pass Details

Date: 09 April 2023
Orbit: 615 x 625 km, 98.4° (Epoch: 04 June)

Event Time Altitude Azimuth Distance (km) Brightness Sun altitude
Rises 05:59:44 0° 14° (NNE) 2,900 ? -30.2°
Reaches altitude 10° 06:01:55 10° 14° (NNE) 1,990 ? -30.3°
Enters shadow 06:04:03 29° 15° (NNE) 1,148 ? -30.5°
